Stündliche Wetter Cava de' Tirreni

Heute, 22 Januar, Freitag

Zeit Temperatur Niederschläge Wind Luftdruck Luftfeuchtigkeit
00:00 +7°C° 0.1 mm 4 m/S 730 mmHg 87%
01:00 +7°C° 0.1 mm 4 m/S 729 mmHg 88%
02:00 +8°C° 0.3 mm 4 m/S 729 mmHg 89%
03:00 +8°C° 0.3 mm 4 m/S 729 mmHg 89%
04:00 +8°C° 0.3 mm 5 m/S 728 mmHg 90%
05:00 +8°C° 0.4 mm 5 m/S 728 mmHg 89%
06:00 +8°C° 0.4 mm 5 m/S 728 mmHg 89%
07:00 +9°C° 0.4 mm 6 m/S 728 mmHg 88%
08:00 +9°C° 0.8 mm 6 m/S 728 mmHg 89%
09:00 +9°C° 0.8 mm 7 m/S 728 mmHg 90%
10:00 +9°C° 0.8 mm 7 m/S 728 mmHg 91%
11:00 +10°C° 0.9 mm 7 m/S 727 mmHg 87%
12:00 +10°C° 0.9 mm 8 m/S 726 mmHg 83%
13:00 +11°C° 0.9 mm 8 m/S 726 mmHg 79%
14:00 +11°C° 0.7 mm 8 m/S 725 mmHg 81%
15:00 +10°C° 0.7 mm 7 m/S 725 mmHg 83%
16:00 +10°C° 0.7 mm 7 m/S 725 mmHg 85%
17:00 +10°C° 0.3 mm 7 m/S 724 mmHg 84%
18:00 +10°C° 0.3 mm 7 m/S 724 mmHg 82%
19:00 +10°C° 0.3 mm 7 m/S 724 mmHg 81%
20:00 +10°C° 0.2 mm 7 m/S 723 mmHg 80%
21:00 +10°C° 0.2 mm 8 m/S 723 mmHg 79%
22:00 +10°C° 0.2 mm 9 m/S 722 mmHg 79%
23:00 +10°C° 0.1 mm 9 m/S 722 mmHg 80%

Morgen, 23 Januar, Samstag

Zeit Temperatur Niederschläge Wind Luftdruck Luftfeuchtigkeit
00:00 +10°C° 0.1 mm 9 m/S 721 mmHg 81%
01:00 +10°C° 0.1 mm 9 m/S 720 mmHg 81%
02:00 +10°C° 1 mm 9 m/S 720 mmHg 83%
03:00 +9°C° 1 mm 10 m/S 720 mmHg 84%
04:00 +9°C° 1 mm 10 m/S 719 mmHg 86%
05:00 +8°C° 1.6 mm 9 m/S 719 mmHg 84%
06:00 +9°C° 1.6 mm 8 m/S 719 mmHg 83%
07:00 +9°C° 1.6 mm 7 m/S 719 mmHg 81%
08:00 +8°C° 0.6 mm 7 m/S 720 mmHg 76%
09:00 +8°C° 0.6 mm 7 m/S 720 mmHg 71%
10:00 +8°C° 0.6 mm 6 m/S 720 mmHg 66%
11:00 +8°C° 0.3 mm 7 m/S 720 mmHg 66%
12:00 +7°C° 0.3 mm 8 m/S 720 mmHg 65%
13:00 +7°C° 0.3 mm 9 m/S 720 mmHg 65%
14:00 +7°C° 0.6 mm 9 m/S 720 mmHg 67%
15:00 +7°C° 0.6 mm 9 m/S 720 mmHg 69%
16:00 +7°C° 0.6 mm 9 m/S 719 mmHg 71%
17:00 +7°C° 1 mm 9 m/S 720 mmHg 72%
18:00 +7°C° 1 mm 8 m/S 720 mmHg 74%
19:00 +7°C° 1 mm 8 m/S 720 mmHg 75%
20:00 +7°C° 1 mm 8 m/S 720 mmHg 75%
21:00 +7°C° 1 mm 8 m/S 720 mmHg 76%
22:00 +7°C° 1 mm 8 m/S 720 mmHg 76%
23:00 +6°C° 0.7 mm 8 m/S 720 mmHg 76%

übermorgen, 24 Januar, Sonntag

Zeit Temperatur Niederschläge Wind Luftdruck Luftfeuchtigkeit
00:00 +6°C° 0.7 mm 8 m/S 720 mmHg 75%
01:00 +6°C° 0.7 mm 7 m/S 720 mmHg 75%
02:00 +6°C° 0.4 mm 8 m/S 720 mmHg 74%
03:00 +6°C° 0.4 mm 8 m/S 719 mmHg 74%
04:00 +6°C° 0.4 mm 8 m/S 719 mmHg 73%
05:00 +6°C° 0.2 mm 7 m/S 719 mmHg 73%
06:00 +6°C° 0.2 mm 7 m/S 719 mmHg 74%
07:00 +7°C° 0.2 mm 6 m/S 719 mmHg 75%
08:00 +7°C° 1.3 mm 5 m/S 719 mmHg 80%
09:00 +7°C° 1.3 mm 5 m/S 719 mmHg 86%
10:00 +7°C° 1.3 mm 5 m/S 718 mmHg 92%
11:00 +7°C° 3.3 mm 6 m/S 717 mmHg 93%
12:00 +6°C° 3.3 mm 7 m/S 716 mmHg 94%
13:00 +7°C° 3.3 mm 9 m/S 715 mmHg 95%
14:00 +7°C° 4.8 mm 9 m/S 714 mmHg 94%
15:00 +7°C° 4.8 mm 9 m/S 713 mmHg 93%
16:00 +7°C° 4.8 mm 10 m/S 712 mmHg 93%
17:00 +7°C° 2.1 mm 9 m/S 713 mmHg 91%
18:00 +7°C° 2.1 mm 9 m/S 713 mmHg 89%
19:00 +7°C° 2.1 mm 8 m/S 713 mmHg 86%
20:00 +7°C° 0.1 mm 8 m/S 714 mmHg 85%
21:00 +6°C° 0.1 mm 7 m/S 715 mmHg 83%
22:00 +7°C° 0.1 mm 6 m/S 716 mmHg 81%
23:00 +5°C° 0.1 mm 7 m/S 716 mmHg 78%

25 Januar, Montag

Zeit Temperatur Niederschläge Wind Luftdruck Luftfeuchtigkeit
00:00 +5°C° 0.1 mm 7 m/S 717 mmHg 76%
01:00 +5°C° 0.1 mm 8 m/S 718 mmHg 73%
02:00 +4°C° 0 mm 7 m/S 718 mmHg 73%
03:00 +4°C° 0 mm 7 m/S 719 mmHg 73%
04:00 +4°C° 0 mm 6 m/S 719 mmHg 73%
05:00 +4°C° 0.3 mm 7 m/S 720 mmHg 73%
06:00 +4°C° 0.3 mm 8 m/S 720 mmHg 73%
07:00 +4°C° 0.3 mm 8 m/S 720 mmHg 73%
08:00 +5°C° 0.1 mm 10 m/S 720 mmHg 67%
09:00 +6°C° 0.1 mm 11 m/S 721 mmHg 61%
10:00 +5°C° 0.1 mm 12 m/S 721 mmHg 55%
11:00 +5°C° 0 mm 12 m/S 721 mmHg 52%
12:00 +5°C° 0 mm 12 m/S 721 mmHg 48%
13:00 +5°C° 0 mm 12 m/S 721 mmHg 45%
14:00 +6°C° 0 mm 11 m/S 721 mmHg 49%
15:00 +6°C° 0 mm 10 m/S 722 mmHg 52%
16:00 +6°C° 0 mm 9 m/S 722 mmHg 55%
17:00 +5°C° 0 mm 7 m/S 723 mmHg 58%
18:00 +4°C° 0 mm 6 m/S 724 mmHg 61%
19:00 +5°C° 0 mm 5 m/S 725 mmHg 64%
20:00 +4°C° 0 mm 4 m/S 725 mmHg 67%
21:00 +4°C° 0 mm 4 m/S 726 mmHg 69%
22:00 +3°C° 0 mm 3 m/S 727 mmHg 72%
23:00 +3°C° 0 mm 3 m/S 727 mmHg 71%

26 Januar, Dienstag

Zeit Temperatur Niederschläge Wind Luftdruck Luftfeuchtigkeit
00:00 +4°C° 0 mm 2 m/S 727 mmHg 69%
01:00 +4°C° 0 mm 2 m/S 727 mmHg 68%
02:00 +4°C° 0 mm 2 m/S 727 mmHg 67%
03:00 +4°C° 0 mm 1 m/S 727 mmHg 67%
04:00 +4°C° 0 mm 1 m/S 727 mmHg 67%
05:00 +4°C° 0 mm 1 m/S 727 mmHg 67%
06:00 +4°C° 0 mm 1 m/S 728 mmHg 67%
07:00 +4°C° 0 mm 1 m/S 728 mmHg 67%
08:00 +5°C° 0 mm 1 m/S 728 mmHg 62%
09:00 +6°C° 0 mm 1 m/S 729 mmHg 58%
10:00 +7°C° 0 mm 1 m/S 729 mmHg 53%
11:00 +8°C° 0 mm 1 m/S 729 mmHg 48%
12:00 +9°C° 0 mm 1 m/S 729 mmHg 44%
13:00 +10°C° 0 mm 1 m/S 729 mmHg 39%
14:00 +10°C° 0 mm 1 m/S 729 mmHg 40%
15:00 +9°C° 0 mm 1 m/S 729 mmHg 41%
16:00 +9°C° 0 mm 1 m/S 729 mmHg 42%
17:00 +8°C° 0 mm 1 m/S 729 mmHg 45%
18:00 +6°C° 0 mm 2 m/S 730 mmHg 48%
19:00 +5°C° 0 mm 2 m/S 730 mmHg 51%
20:00 +4°C° 0 mm 2 m/S 730 mmHg 51%
21:00 +4°C° 0 mm 2 m/S 730 mmHg 52%
22:00 +4°C° 0 mm 2 m/S 731 mmHg 53%
23:00 +4°C° 0 mm 1 m/S 731 mmHg 52%

27 Januar, Mittwoch

Zeit Temperatur Niederschläge Wind Luftdruck Luftfeuchtigkeit
00:00 +4°C° 0 mm 1 m/S 731 mmHg 51%
01:00 +4°C° 0 mm 1 m/S 730 mmHg 50%
02:00 +4°C° 0 mm 1 m/S 730 mmHg 50%
03:00 +4°C° 0 mm 1 m/S 730 mmHg 49%
04:00 +4°C° 0 mm 1 m/S 730 mmHg 49%
05:00 +4°C° 0 mm 1 m/S 730 mmHg 50%
06:00 +4°C° 0 mm 1 m/S 730 mmHg 51%
07:00 +4°C° 0 mm 1 m/S 730 mmHg 52%
08:00 +5°C° 0 mm 1 m/S 729 mmHg 51%
09:00 +7°C° 0 mm 1 m/S 729 mmHg 51%
10:00 +7°C° 0 mm 2 m/S 729 mmHg 51%
11:00 +7°C° 0.1 mm 2 m/S 729 mmHg 57%
12:00 +6°C° 0.1 mm 2 m/S 729 mmHg 64%
13:00 +6°C° 0.1 mm 2 m/S 728 mmHg 71%
14:00 +6°C° 0.2 mm 2 m/S 728 mmHg 75%
15:00 +6°C° 0.2 mm 2 m/S 728 mmHg 79%
16:00 +5°C° 0.2 mm 2 m/S 727 mmHg 83%
17:00 +4°C° 0.7 mm 3 m/S 727 mmHg 84%
18:00 +4°C° 0.7 mm 3 m/S 728 mmHg 84%
19:00 +4°C° 0.7 mm 3 m/S 728 mmHg 84%
20:00 +4°C° 0.2 mm 3 m/S 728 mmHg 84%
21:00 +4°C° 0.2 mm 3 m/S 729 mmHg 84%
22:00 +3°C° 0.2 mm 3 m/S 729 mmHg 83%
23:00 +3°C° 0 mm 3 m/S 730 mmHg 81%
Mehr zeigen

Wir brauchen deine Erlaubnis

Meteoprog und unser Service Anbieter werden persönliche Daten aufbewahren, so wie Cookies, Geräte Bezeichnung oder ähnliche Technologien von deinem Gerät und Prozess, so wie Persönliche Daten Inhalte und Werbungen, genauso wie social Media und den Verkehr zu analysieren.

  • Aufbewahrung und/oder Zugang zu deiner Geräte Informationen.

    Cookies, Geräte Bezeichnung oder andere Informationen, können aufbewahrt oder Zugang zu deinem Gerät erhalten, für den Grund, der oben angegeben wird.

  • Personalisierte Werbung und Inhalte, Messungen, Einblick in das Publikum und Produkt Entwicklung.

    Werbungen und Inhalte können personalisiert werden, basierend auf ein Profil. Mehr Daten können besser personalisierte Werbungen und Inhalte hinzufügen. Werbung und Inhalte können gezeigt und gemessen werden. Einblicke über das Publikum, welche die Werbung gesehen haben und den Inhalt, können abgeleitet werden. So wie Daten können genutzt werden, um es zu verbessern oder die Benutzer Erfahrung zu verbessern das System und die Software.

Wenn du “Ich stimme zu” klickst, erlaubst du uns, die Cookies zu benutzen die Geräte Bezeichnung, den Web oder ähnliche Technologien zu benutzen. Deine Settings, können in deinem Gerät bei deinem Browser geändert werden.

Für den bestimmten Zweck, berechtigten Interessen beruhen darauf, mehr als auf den Inhalt. Du kannst mehr darüber in unseren Privaten und Cookie Politik lesen.